TimeAKDT,TemperatureF,Dew PointF,Humidity,Sea Level PressureIn,VisibilityMPH,Wind Direction,Wind SpeedMPH,Gust SpeedMPH,PrecipitationIn,Events,Conditions,WindDirDegrees,DateUTC
12:53 AM,55.9,52.0,87,30.19,10.0,Calm,Calm,-,N/A,,Overcast,0,2013-07-31 08:53:00
1:53 AM,55.9,52.0,87,30.20,10.0,Calm,Calm,-,N/A,,Overcast,0,2013-07-31 09:53:00
2:53 AM,55.9,52.0,87,30.20,10.0,Calm,Calm,-,N/A,,Overcast,0,2013-07-31 10:53:00
3:53 AM,55.0,51.1,86,30.19,10.0,Calm,Calm,-,N/A,,Overcast,0,2013-07-31 11:53:00
4:53 AM,53.1,48.9,86,30.17,10.0,North,3.5,-,N/A,,Mostly Cloudy,360,2013-07-31 12:53:00
5:53 AM,53.1,48.9,86,30.17,10.0,Calm,Calm,-,N/A,,Mostly Cloudy,0,2013-07-31 13:53:00
6:53 AM,55.0,50.0,83,30.16,10.0,North,3.5,-,N/A,,Mostly Cloudy,360,2013-07-31 14:53:00
7:53 AM,55.9,51.1,84,30.16,10.0,Calm,Calm,-,N/A,,Mostly Cloudy,0,2013-07-31 15:53:00
8:53 AM,60.1,53.1,78,30.14,10.0,Calm,Calm,-,N/A,,Mostly Cloudy,0,2013-07-31 16:53:00
9:53 AM,62.1,52.0,70,30.13,10.0,East,5.8,-,N/A,,Mostly Cloudy,80,2013-07-31 17:53:00
10:53 AM,63.0,53.1,70,30.14,10.0,SSW,3.5,-,N/A,,Mostly Cloudy,210,2013-07-31 18:53:00
11:53 AM,63.0,53.1,70,30.12,10.0,South,4.6,-,N/A,,Mostly Cloudy,180,2013-07-31 19:53:00
12:53 PM,63.0,53.1,70,30.11,10.0,SSW,3.5,-,N/A,,Mostly Cloudy,210,2013-07-31 20:53:00
1:53 PM,64.9,53.1,65,30.10,10.0,SW,5.8,-,N/A,,Mostly Cloudy,230,2013-07-31 21:53:00
2:53 PM,64.0,53.1,67,30.10,10.0,SW,6.9,-,N/A,,Mostly Cloudy,220,2013-07-31 22:53:00
3:53 PM,64.0,52.0,65,30.08,10.0,WSW,5.8,-,N/A,,Mostly Cloudy,240,2013-07-31 23:53:00
4:53 PM,64.0,52.0,65,30.07,10.0,SW,6.9,-,N/A,,Mostly Cloudy,230,2013-08-01 00:53:00
5:53 PM,63.0,53.1,70,30.05,10.0,SW,6.9,-,N/A,,Mostly Cloudy,220,2013-08-01 01:53:00
6:53 PM,62.1,52.0,70,30.05,10.0,SSW,4.6,-,N/A,,Mostly Cloudy,200,2013-08-01 02:53:00
7:53 PM,63.0,52.0,67,30.02,10.0,SSW,3.5,-,N/A,,Mostly Cloudy,210,2013-08-01 03:53:00
8:53 PM,63.0,52.0,67,30.01,10.0,West,3.5,-,N/A,,Mostly Cloudy,260,2013-08-01 04:53:00
9:53 PM,62.1,53.1,72,29.99,10.0,WSW,3.5,-,N/A,,Overcast,250,2013-08-01 05:53:00
10:53 PM,62.1,53.1,72,29.98,10.0,Calm,Calm,-,N/A,,Overcast,0,2013-08-01 06:53:00
11:53 PM,60.1,53.1,78,29.99,10.0,Calm,Calm,-,N/A,,Overcast,0,2013-08-01 07:53:00